Total_Precipitation_Accumulation
0.00 0.01 0.04 0.06 0.08 0.09 0.18 0.25 0.23 0.17 0.20 0.18 0.10 0.06 0.07 0.08 0.11 0.09 0.06 0.05 0.04 0.05 0.07 0.10 0.15 0.21 0.20 0.18 0.20 0.27 0.31 0.29 0.26 0.26 0.32 0.36 0.35 0.32 0.31 0.33 0.33 0.43 0.24
0.00 0.00 0.03 0.08 0.10 0.10 0.14 0.19 0.25 0.22 0.28 0.23 0.14 0.09 0.08 0.08 0.09 0.05 0.03 0.03 0.03 0.04 0.06 0.09 0.15 0.17 0.20 0.24 0.25 0.29 0.28 0.22 0.18 0.21 0.35 0.43 0.38 0.32 0.27 0.26 0.35 0.42 0.27
0.00 0.00 0.02 0.09 0.09 0.09 0.14 0.18 0.25 0.28 0.37 0.32 0.24 0.15 0.10 0.09 0.10 0.07 0.05 0.06 0.07 0.05 0.05 0.08 0.18 0.21 0.20 0.27 0.29 0.27 0.23 0.15 0.12 0.18 0.36 0.65 0.49 0.31 0.26 0.33 0.46 0.30 0.25
0.00 0.00 0.03 0.10 0.09 0.09 0.13 0.22 0.32 0.34 0.45 0.44 0.26 0.13 0.06 0.09 0.16 0.13 0.12 0.22 0.10 0.03 0.02 0.06 0.15 0.20 0.20 0.23 0.27 0.24 0.22 0.21 0.21 0.22 0.46 0.67 0.68 0.45 0.41 0.47 0.50 0.37 0.31
0.00 0.01 0.08 0.15 0.12 0.11 0.13 0.25 0.35 0.39 0.46 0.41 0.20 0.06 0.03 0.10 0.19 0.21 0.23 0.26 0.07 0.02 0.02 0.04 0.11 0.16 0.16 0.15 0.16 0.14 0.15 0.20 0.32 0.41 0.60 0.70 0.71 0.53 0.48 0.49 0.46 0.35 0.35
0.00 0.02 0.07 0.15 0.15 0.13 0.13 0.26 0.35 0.41 0.46 0.39 0.17 0.06 0.06 0.13 0.17 0.16 0.24 0.13 0.04 0.02 0.01 0.02 0.07 0.10 0.10 0.11 0.13 0.11 0.14 0.18 0.26 0.41 0.60 0.72 0.63 0.45 0.45 0.47 0.45 0.46 0.37
0.01 0.02 0.05 0.10 0.13 0.14 0.16 0.31 0.41 0.42 0.44 0.35 0.16 0.09 0.07 0.09 0.10 0.13 0.18 0.06 0.02 0.01 0.00 0.01 0.05 0.06 0.07 0.09 0.10 0.09 0.09 0.09 0.15 0.25 0.41 0.65 0.50 0.36 0.36 0.41 0.46 0.48 0.39
0.00 0.01 0.03 0.06 0.11 0.15 0.20 0.31 0.39 0.39 0.37 0.32 0.17 0.09 0.08 0.08 0.08 0.14 0.14 0.04 0.01 0.00 0.00 0.01 0.03 0.06 0.07 0.07 0.08 0.10 0.10 0.06 0.06 0.11 0.23 0.40 0.40 0.35 0.31 0.41 0.50 0.47 0.41
0.01 0.01 0.02 0.05 0.08 0.17 0.27 0.32 0.37 0.38 0.37 0.31 0.19 0.12 0.08 0.08 0.07 0.09 0.07 0.01 0.00 0.00 0.00 0.00 0.03 0.04 0.03 0.06 0.08 0.10 0.08 0.06 0.04 0.06 0.12 0.23 0.26 0.24 0.27 0.38 0.50 0.52 0.46
0.01 0.00 0.01 0.03 0.07 0.11 0.14 0.22 0.30 0.35 0.35 0.33 0.22 0.14 0.10 0.08 0.05 0.05 0.02 0.00 0.00 0.00 0.00 0.01 0.02 0.01 0.02 0.04 0.04 0.06 0.05 0.03 0.05 0.08 0.12 0.14 0.14 0.15 0.17 0.20 0.26 0.30 0.33
0.01 0.00 0.01 0.01 0.02 0.04 0.07 0.09 0.19 0.26 0.30 0.26 0.21 0.13 0.11 0.12 0.06 0.04 0.02 0.00 0.00 0.00 0.01 0.02 0.03 0.02 0.01 0.02 0.02 0.04 0.03 0.04 0.06 0.08 0.12 0.11 0.08 0.09 0.11 0.12 0.15 0.17 0.19
0.01 0.01 0.01 0.01 0.01 0.02 0.04 0.15 0.26 0.22 0.17 0.15 0.20 0.12 0.11 0.11 0.10 0.05 0.03 0.01 0.00 0.01 0.01 0.02 0.03 0.01 0.00 0.00 0.01 0.02 0.02 0.03 0.06 0.05 0.07 0.10 0.08 0.05 0.06 0.08 0.09 0.10 0.10
0.01 0.01 0.02 0.01 0.01 0.02 0.08 0.19 0.30 0.37 0.28 0.23 0.17 0.09 0.12 0.08 0.03 0.03 0.04 0.03 0.02 0.02 0.00 0.00 0.00 0.00 0.00 0.00 0.00 0.01 0.01 0.02 0.04 0.06 0.08 0.11 0.13 0.13 0.07 0.06 0.07 0.07 0.07
0.01 0.01 0.02 0.02 0.02 0.01 0.01 0.05 0.12 0.16 0.21 0.19 0.10 0.05 0.05 0.03 0.02 0.02 0.03 0.03 0.02 0.00 0.00 0.00 0.00 0.00 0.00 0.00 0.01 0.03 0.02 0.02 0.07 0.12 0.15 0.16 0.22 0.19 0.13 0.07 0.05 0.06 0.06
0.01 0.01 0.01 0.01 0.01 0.01 0.01 0.01 0.02 0.05 0.11 0.14 0.13 0.05 0.03 0.02 0.02 0.02 0.02 0.02 0.01 0.00 0.00 0.00 0.00 0.00 0.00 0.01 0.03 0.03 0.03 0.02 0.06 0.13 0.25 0.32 0.44 0.42 0.35 0.21 0.11 0.09 0.11
0.04 0.04 0.02 0.02 0.02 0.01 0.00 0.01 0.00 0.02 0.05 0.11 0.10 0.03 0.03 0.02 0.02 0.02 0.03 0.02 0.01 0.01 0.00 0.00 0.00 0.00 0.00 0.00 0.01 0.01 0.02 0.02 0.02 0.06 0.18 0.39 0.53 0.48 0.50 0.45 0.30 0.21 0.17
0.10 0.08 0.07 0.06 0.06 0.04 0.03 0.02 0.02 0.02 0.02 0.07 0.09 0.04 0.05 0.04 0.02 0.02 0.03 0.03 0.02 0.01 0.00 0.00 0.00 0.00 0.00 0.00 0.00 0.00 0.00 0.01 0.01 0.01 0.02 0.09 0.21 0.30 0.38 0.39 0.38 0.31 0.24
0.16 0.18 0.17 0.16 0.13 0.07 0.06 0.06 0.05 0.04 0.04 0.06 0.09 0.06 0.06 0.05 0.05 0.03 0.02 0.04 0.03 0.01 0.00 0.01 0.01 0.01 0.00 0.01 0.01 0.01 0.00 0.00 0.00 0.00 0.00 0.01 0.04 0.10 0.21 0.21 0.24 0.26 0.27
0.20 0.20 0.21 0.24 0.23 0.17 0.13 0.14 0.14 0.13 0.14 0.14 0.16 0.16 0.15 0.16 0.17 0.16 0.13 0.10 0.05 0.04 0.04 0.04 0.04 0.02 0.02 0.03 0.02 0.02 0.01 0.00 0.01 0.00 0.01 0.01 0.02 0.04 0.08 0.07 0.08 0.09 0.11
0.20 0.20 0.21 0.27 0.40 0.45 0.44 0.40 0.45 0.39 0.37 0.38 0.43 0.38 0.30 0.37 0.49 0.47 0.47 0.36 0.26 0.20 0.18 0.12 0.12 0.12 0.07 0.05 0.02 0.02 0.01 0.01 0.01 0.00 0.01 0.01 0.01 0.01 0.01 0.01 0.03 0.02 0.02
0.16 0.18 0.20 0.24 0.37 0.44 0.45 0.52 0.67 0.75 0.77 0.80 0.86 0.77 0.62 0.59 0.75 0.83 0.75 0.68 0.60 0.47 0.42 0.38 0.36 0.40 0.24 0.08 0.08 0.09 0.04 0.01 0.01 0.01 0.00 0.01 0.01 0.01 0.00 0.00 0.01 0.01 0.01
0.09 0.12 0.17 0.22 0.31 0.38 0.46 0.63 0.82 0.95 0.87 0.87 0.96 0.99 0.90 0.79 0.88 0.91 0.97 0.94 0.87 0.82 0.74 0.62 0.62 0.72 0.53 0.24 0.24 0.36 0.22 0.10 0.04 0.02 0.01 0.01 0.01 0.01 0.01 0.01 0.00 0.00 0.00
0.06 0.07 0.12 0.20 0.35 0.52 0.71 0.96 1.15 1.28 1.26 1.20 1.12 1.12 1.11 1.10 1.13 1.11 1.11 1.05 0.97 0.86 0.85 0.89 0.91 1.13 0.93 0.57 0.40 0.44 0.40 0.31 0.15 0.04 0.02 0.02 0.02 0.01 0.01 0.00 0.00 0.00 0.00
0.07 0.09 0.16 0.31 0.51 0.76 1.07 1.33 1.51 1.69 1.72 1.49 1.37 1.26 1.16 1.07 1.10 1.14 1.05 0.98 0.90 0.82 0.92 0.98 0.97 1.19 1.23 0.90 0.65 0.46 0.34 0.30 0.26 0.18 0.07 0.04 0.04 0.04 0.01 0.01 0.00 0.00 0.00
0.15 0.22 0.35 0.57 0.87 1.14 1.35 1.49 1.66 1.74 1.71 1.60 1.43 1.31 1.16 1.09 0.97 0.89 0.86 0.89 0.89 0.89 0.95 1.04 1.08 1.26 1.27 1.15 0.89 0.75 0.64 0.49 0.31 0.28 0.26 0.11 0.05 0.04 0.02 0.01 0.02 0.01 0.00
0.27 0.40 0.55 0.74 1.00 1.15 1.24 1.35 1.52 1.63 1.65 1.62 1.52 1.44 1.34 1.23 1.01 0.81 0.73 0.76 0.89 1.01 1.04 1.06 1.12 1.26 1.29 1.27 1.07 0.87 0.78 0.69 0.58 0.51 0.38 0.26 0.12 0.03 0.03 0.03 0.04 0.02 0.01